Météo Nord-Pas-de-Calais   La météo au plus près de chez vous

Station météorologique

Observations météo à St Rambert Cg01 (01384)

01384003 296 m Dernier relevé à 13:42
25.1°C
Vent 5.4 km/h

Journée consultée

Lundi 31 Août 2026

Synthèse de la journée

Périodes de référence en UTC

Température maximale

25.1°C

à 13:42

06h 06h

Température minimale

16.4°C

à 07:30

18h 18h

Rafale maximale

18 km/h

à 13:18

00h 00h

Précipitations

0 mm

Cumul quotidien

06h 06h

Graphiques de la journée

Heure locale Réduire

Données détaillées

Relevés météo

Pas de 6 minutes Afficher les relevés infra-horaires
Relevés météo détaillés à St Rambert Cg01 pour le Lundi 31 Août 2026
Heure Température °C Vent moyen (raf.), km/h Précipitations mm
13:42 25.1 °C 4 km/h (9 km/h) 0 mm0 mm
13:36 24.4 °C 5 km/h (9 km/h) 0 mm0 mm
13:30 24.3 °C 5 km/h (12 km/h) 0 mm0 mm
13:24 24.3 °C 8 km/h (18 km/h) 0 mm0 mm
13:18 24.5 °C 6 km/h (18 km/h) 0 mm0 mm
13:12 24.4 °C 5 km/h (12 km/h) 0 mm0 mm
13:06 23.9 °C 5 km/h (12 km/h) 0 mm0 mm
13:00 23.9 °C 5 km/h (10 km/h) 0 mm0 mm
12:54 23.8 °C 6 km/h (13 km/h) 0 mm0 mm
12:48 23.6 °C 6 km/h (15 km/h) 0 mm0 mm
12:42 23.7 °C 5 km/h (11 km/h) 0 mm0 mm
12:36 23.6 °C 5 km/h (13 km/h) 0 mm0 mm
12:30 23.4 °C 6 km/h (14 km/h) 0 mm0 mm
12:24 23.2 °C 7 km/h (15 km/h) 0 mm0 mm
12:18 23 °C 7 km/h (15 km/h) 0 mm0 mm
12:12 23.1 °C 5 km/h (12 km/h) 0 mm0 mm
12:06 22.9 °C 6 km/h (13 km/h) 0 mm0 mm
12:00 22.7 °C 7 km/h (16 km/h) 0 mm0 mm
11:54 22.4 °C 6 km/h (16 km/h) 0 mm0 mm
11:48 22.3 °C 5 km/h (9 km/h) 0 mm0 mm
11:42 21.7 °C 5 km/h (9 km/h) 0 mm0 mm
11:36 21.7 °C 5 km/h (13 km/h) 0 mm0 mm
11:30 21.7 °C 5 km/h (13 km/h) 0 mm0 mm
11:24 21.3 °C 5 km/h (9 km/h) 0 mm0 mm
11:18 21.5 °C 5 km/h (16 km/h) 0 mm0 mm
11:12 20.9 °C 4 km/h (16 km/h) 0 mm0 mm
11:06 20.9 °C 5 km/h (14 km/h) 0 mm0 mm
11:00 20.9 °C 4 km/h (12 km/h) 0 mm0 mm
10:54 20.8 °C 4 km/h (8 km/h) 0 mm0 mm
10:48 20.3 °C 4 km/h (7 km/h) 0 mm0 mm
10:42 20 °C 3 km/h (8 km/h) 0 mm0 mm
10:36 20 °C 3 km/h (6 km/h) 0 mm0 mm
10:30 20.4 °C 3 km/h (5 km/h) 0 mm0 mm
10:24 20.5 °C 3 km/h (5 km/h) 0 mm0 mm
10:18 19.8 °C 3 km/h (5 km/h) 0 mm0 mm
10:12 19.5 °C 3 km/h (5 km/h) 0 mm0 mm
10:06 19.2 °C 3 km/h (5 km/h) 0 mm0 mm
10:00 18.6 °C 3 km/h (6 km/h) 0 mm0 mm
09:54 19.1 °C 3 km/h (6 km/h) 0 mm0 mm
09:48 18.9 °C 3 km/h (8 km/h) 0 mm0 mm
09:42 18.9 °C 2 km/h (8 km/h) 0 mm0 mm
09:36 18.5 °C 3 km/h (8 km/h) 0 mm0 mm
09:30 18.6 °C 2 km/h (4 km/h) 0 mm0 mm
09:24 18.1 °C 3 km/h (5 km/h) 0 mm0 mm
09:18 17.9 °C 3 km/h (5 km/h) 0 mm0 mm
09:12 18 °C 2 km/h (4 km/h) 0 mm0 mm
09:06 17.7 °C 3 km/h (4 km/h) 0 mm0 mm
09:00 17.5 °C 3 km/h (4 km/h) 0 mm0 mm
08:54 17.4 °C 2 km/h (4 km/h) 0 mm0 mm
08:48 17.3 °C 0 km/h (4 km/h) 0 mm0 mm
08:42 16.9 °C 0 km/h (3 km/h) 0 mm0 mm
08:36 16.5 °C 0 km/h (2 km/h) 0 mm0 mm
08:30 16.6 °C 0 km/h (2 km/h) 0 mm0 mm
08:24 16.6 °C 0 km/h (3 km/h) 0 mm0 mm
08:18 16.5 °C 0 km/h (4 km/h) 0 mm0 mm
08:12 16.6 °C 0 km/h (3 km/h) 0 mm0 mm
08:06 16.6 °C 0 km/h (4 km/h) 0 mm0 mm
08:00 16.5 °C 2 km/h (4 km/h) 0 mm0 mm
07:54 16.5 °C 2 km/h (7 km/h) 0 mm0 mm
07:48 16.5 °C 0 km/h (7 km/h) 0 mm0 mm
07:42 16.4 °C 0 km/h (4 km/h) 0 mm0 mm
07:36 16.4 °C 0 km/h (4 km/h) 0 mm0 mm
07:30 16.4 °C 0 km/h (6 km/h) 0 mm0 mm
07:24 16.5 °C 0 km/h (6 km/h) 0 mm0 mm
07:18 16.6 °C 0 km/h (4 km/h) 0 mm0 mm
07:12 16.7 °C 0 km/h (3 km/h) 0 mm0 mm
07:06 16.6 °C 0 km/h (3 km/h) 0 mm0 mm
07:00 16.6 °C 0 km/h (3 km/h) 0 mm0 mm
06:54 16.5 °C 0 km/h (3 km/h) 0 mm0 mm
06:48 16.7 °C 0 km/h (4 km/h) 0 mm0 mm
06:42 16.8 °C 0 km/h (4 km/h) 0 mm0 mm
06:36 16.8 °C 0 km/h (4 km/h) 0 mm0 mm
06:30 16.8 °C 0 km/h (4 km/h) 0 mm0 mm
06:24 16.8 °C 0 km/h (5 km/h) 0 mm0 mm
06:18 16.9 °C 0 km/h (5 km/h) 0 mm0 mm
06:12 16.9 °C 0 km/h (6 km/h) 0 mm0 mm
06:06 17 °C 0 km/h (6 km/h) 0 mm0 mm
06:00 17 °C 2 km/h (6 km/h) 0 mm0 mm
05:54 17.1 °C 0 km/h (5 km/h) 0 mm0 mm
05:48 17.1 °C 0 km/h (5 km/h) 0 mm0 mm
05:42 17.1 °C 0 km/h (5 km/h) 0 mm0 mm
05:36 17.1 °C 0 km/h (5 km/h) 0 mm0 mm
05:30 17.2 °C 0 km/h (5 km/h) 0 mm0 mm
05:24 17.3 °C 0 km/h (5 km/h) 0 mm0 mm
05:18 17.3 °C 0 km/h (4 km/h) 0 mm0 mm
05:12 17.3 °C 0 km/h (6 km/h) 0 mm0 mm
05:06 17.4 °C 0 km/h (6 km/h) 0 mm0 mm
05:00 17.3 °C 0 km/h (8 km/h) 0 mm0 mm
04:54 17.4 °C 0 km/h (8 km/h) 0 mm0 mm
04:48 17.4 °C 0 km/h (5 km/h) 0 mm0 mm
04:42 17.4 °C 0 km/h (5 km/h) 0 mm0 mm
04:36 17.6 °C 2 km/h (7 km/h) 0 mm0 mm
04:30 17.6 °C 2 km/h (7 km/h) 0 mm0 mm
04:24 17.6 °C 0 km/h (5 km/h) 0 mm0 mm
04:18 17.7 °C 0 km/h (4 km/h) 0 mm0 mm
04:12 17.7 °C 0 km/h (5 km/h) 0 mm0 mm
04:06 17.7 °C 0 km/h (5 km/h) 0 mm0 mm
04:00 17.8 °C 0 km/h (5 km/h) 0 mm0 mm
03:54 17.9 °C 0 km/h (4 km/h) 0 mm0 mm
03:48 18 °C 0 km/h (4 km/h) 0 mm0 mm
03:42 18 °C 0 km/h (5 km/h) 0 mm0 mm
03:36 18 °C 0 km/h (3 km/h) 0 mm0 mm
03:30 18 °C 0 km/h (4 km/h) 0 mm0 mm
03:24 18.1 °C 0 km/h (4 km/h) 0 mm0 mm
03:18 18.1 °C 0 km/h (4 km/h) 0 mm0 mm
03:12 18.2 °C 2 km/h (5 km/h) 0 mm0 mm
03:06 18.3 °C 0 km/h (4 km/h) 0 mm0 mm
03:00 18.4 °C 0 km/h (4 km/h) 0 mm0.8 mm
02:54 18.5 °C 0 km/h (3 km/h) 0 mm0 mm
02:48 18.6 °C 2 km/h (6 km/h) 0 mm0 mm
02:42 18.6 °C 2 km/h (6 km/h) 0 mm0 mm
02:36 18.6 °C 0 km/h (10 km/h) 0 mm0 mm
02:30 18.7 °C 3 km/h (10 km/h) 0 mm0 mm
02:24 18.8 °C 0 km/h (5 km/h) 0 mm0 mm
02:18 18.8 °C 0 km/h (4 km/h) 0.1 mm0 mm
02:12 18.9 °C 0 km/h (4 km/h) 0.5 mm0 mm
02:06 18.9 °C 0 km/h (3 km/h) 0.2 mm0 mm
02:00 19 °C 0 km/h (4 km/h) 0 mm0.8 mm
01:54 19 °C 0 km/h (4 km/h) 0 mm0 mm
01:48 19.1 °C 0 km/h (3 km/h) 0 mm0 mm
01:42 19.1 °C 0 km/h (5 km/h) 0.1 mm0 mm
01:36 19.1 °C 0 km/h (5 km/h) 0.6 mm0 mm
01:30 18.7 °C 2 km/h (5 km/h) 0 mm0 mm
01:24 18.6 °C 2 km/h (5 km/h) 0.1 mm0 mm
01:18 18.4 °C 0 km/h (5 km/h) 0 mm0 mm
01:12 18.2 °C 0 km/h (4 km/h) 0 mm0 mm
01:06 18.2 °C 2 km/h (4 km/h) 0 mm0 mm
01:00 18.1 °C 2 km/h (4 km/h) 0 mm0 mm
00:54 18 °C 2 km/h (5 km/h) 0 mm0 mm
00:48 17.9 °C 0 km/h (5 km/h) 0 mm0 mm
00:42 17.9 °C 0 km/h (3 km/h) 0 mm0 mm
00:36 17.9 °C 0 km/h (3 km/h) 0 mm0 mm
00:30 17.9 °C 0 km/h (3 km/h) 0 mm0 mm
00:24 18 °C 0 km/h (3 km/h) 0 mm0 mm
00:18 18.1 °C 0 km/h (3 km/h) 0 mm0 mm
00:12 18.2 °C 0 km/h (5 km/h) 0 mm0 mm
00:06 18.2 °C 3 km/h (6 km/h) 0 mm0 mm
00:00 18.3 °C 3 km/h (6 km/h) 0 mm0 mm

Données via Météo-France

Relevés météo à St Rambert Cg01

Cette page rassemble les observations de la station de St Rambert Cg01 : température, humidité, vent, précipitations et pression atmosphérique. Les graphiques facilitent le suivi de la journée, tandis que le tableau donne accès aux mesures horaires et infra-horaires disponibles.

Pour replacer ces mesures dans leur contexte, consultez la climatologie de St Rambert Cg01. Retrouvez aussi la carte des observations météo en temps réel.